Weather Underground History

Daily Summary for August 19, 2018 Units:  Metric    English   Both
« Previous Day
Next Day »
Daily Weekly Monthly Yearly Custom
  Current: High: Low: Average:
Temperature: 19.9 °C 20.2 °C 16.5 °C 18.2 °C
Dew Point: 16.7 °C 17.0 °C 14.7 °C 15.9 °C
Humidity: 82% 94% 80% 87%
Wind Speed: 6.4km/h 29.0km/h 0.0km/h 10km/h
Wind Gust: 9.7km/h 30.6km/h - -
WindWest - - SW
Pressure: 1015.3 hPa 1016.6 hPa 1012.5 hPa -
Precipitation: 0.3 mm      
Historical Graphs
 
 
Tabular Data for August 19, 2018
Time Temperature Dew Point Pressure Wind Wind Speed Wind Gust Humidity Rainfall Rate (Hourly) solar
00:04 18.8 °C 16.3 °C 1016.6 hPa SW 9.7 km/h 16.1 km/h 85% 0.0 mm 0.00 W/m2
00:09 18.8 °C 16.2 °C 1016.5 hPa SW 11.3 km/h 14.5 km/h 85% 0.0 mm 0.00 W/m2
00:14 18.8 °C 16.2 °C 1016.5 hPa SW 6.4 km/h 17.7 km/h 85% 0.0 mm 0.00 W/m2
00:19 18.8 °C 16.2 °C 1016.5 hPa SW 6.4 km/h 14.5 km/h 85% 0.0 mm 0.00 W/m2
00:24 18.7 °C 16.1 °C 1016.4 hPa WSW 8.0 km/h 11.3 km/h 85% 0.0 mm 0.00 W/m2
00:29 18.7 °C 16.1 °C 1016.4 hPa SW 4.8 km/h 9.7 km/h 85% 0.0 mm 0.00 W/m2
00:34 18.7 °C 16.1 °C 1016.3 hPa SW 4.8 km/h 9.7 km/h 85% 0.0 mm 0.00 W/m2
00:39 18.7 °C 16.1 °C 1016.3 hPa SW 8.0 km/h 9.7 km/h 85% 0.0 mm 0.00 W/m2
00:44 18.7 °C 16.1 °C 1016.2 hPa SW 1.6 km/h 8.0 km/h 85% 0.0 mm 0.00 W/m2
00:49 18.7 °C 16.1 °C 1016.2 hPa SW 1.6 km/h 4.8 km/h 85% 0.0 mm 0.00 W/m2
00:54 18.6 °C 16.0 °C 1016.1 hPa SW 11.3 km/h 11.3 km/h 85% 0.0 mm 0.00 W/m2
00:59 18.6 °C 16.0 °C 1016.1 hPa SW 3.2 km/h 8.0 km/h 85% 0.0 mm 0.00 W/m2
01:04 18.6 °C 16.0 °C 1016.1 hPa SW 3.2 km/h 6.4 km/h 85% 0.0 mm 0.00 W/m2
01:09 18.6 °C 16.2 °C 1016.1 hPa SW 3.2 km/h 4.8 km/h 86% 0.0 mm 0.00 W/m2
01:14 18.5 °C 15.9 °C 1016.0 hPa SSW 6.4 km/h 14.5 km/h 85% 0.0 mm 0.00 W/m2
01:19 18.5 °C 16.1 °C 1015.9 hPa SSE 12.9 km/h 14.5 km/h 86% 0.0 mm 0.00 W/m2
01:24 18.5 °C 16.1 °C 1015.8 hPa SSW 3.2 km/h 17.7 km/h 86% 0.0 mm 0.00 W/m2
01:29 18.4 °C 16.1 °C 1015.8 hPa South 9.7 km/h 14.5 km/h 86% 0.0 mm 0.00 W/m2
01:34 18.4 °C 16.0 °C 1015.8 hPa SSW 12.9 km/h 14.5 km/h 86% 0.0 mm 0.00 W/m2
01:39 18.3 °C 15.9 °C 1015.6 hPa South 12.9 km/h 12.9 km/h 86% 0.0 mm 0.00 W/m2
01:44 18.2 °C 16.0 °C 1015.6 hPa SSW 14.5 km/h 14.5 km/h 87% 0.0 mm 0.00 W/m2
01:49 18.1 °C 15.9 °C 1015.6 hPa SSW 11.3 km/h 14.5 km/h 87% 0.0 mm 0.00 W/m2
01:54 18.0 °C 15.8 °C 1015.8 hPa SW 3.2 km/h 11.3 km/h 87% 0.0 mm 0.00 W/m2
01:59 17.9 °C 15.7 °C 1015.9 hPa SW 12.9 km/h 12.9 km/h 87% 0.0 mm 0.00 W/m2
02:04 17.8 °C 15.8 °C 1015.8 hPa SW 8.0 km/h 12.9 km/h 88% 0.0 mm 0.00 W/m2
02:09 17.8 °C 15.8 °C 1015.8 hPa WSW 12.9 km/h 19.3 km/h 88% 0.0 mm 0.00 W/m2
02:14 17.8 °C 15.8 °C 1015.8 hPa SSW 6.4 km/h 12.9 km/h 88% 0.0 mm 0.00 W/m2
02:19 17.7 °C 15.7 °C 1015.8 hPa SW 12.9 km/h 16.1 km/h 88% 0.0 mm 0.00 W/m2
02:24 17.7 °C 15.7 °C 1015.8 hPa SSW 8.0 km/h 14.5 km/h 88% 0.0 mm 0.00 W/m2
02:29 17.7 °C 15.7 °C 1015.7 hPa SSW 9.7 km/h 14.5 km/h 88% 0.0 mm 0.00 W/m2
02:34 17.7 °C 15.6 °C 1015.7 hPa SW 6.4 km/h 6.4 km/h 88% 0.0 mm 0.00 W/m2
02:39 17.6 °C 15.6 °C 1015.7 hPa SSW 3.2 km/h 3.2 km/h 88% 0.0 mm 0.00 W/m2
02:44 17.6 °C 15.7 °C 1015.7 hPa SW 9.7 km/h 17.7 km/h 89% 0.0 mm 0.00 W/m2
02:49 17.5 °C 15.7 °C 1015.6 hPa SW 6.4 km/h 12.9 km/h 89% 0.0 mm 0.00 W/m2
02:54 17.4 °C 15.6 °C 1015.5 hPa SSW 8.0 km/h 19.3 km/h 89% 0.0 mm 0.00 W/m2
02:59 17.4 °C 15.6 °C 1015.5 hPa SSW 12.9 km/h 22.5 km/h 89% 0.0 mm 0.00 W/m2
03:04 17.3 °C 15.7 °C 1015.6 hPa SW 4.8 km/h 16.1 km/h 90% 0.0 mm 0.00 W/m2
03:09 17.3 °C 15.7 °C 1015.5 hPa SSW 8.0 km/h 9.7 km/h 90% 0.0 mm 0.00 W/m2
03:14 17.3 °C 15.7 °C 1015.5 hPa SSW 9.7 km/h 14.5 km/h 90% 0.0 mm 0.00 W/m2
03:19 17.3 °C 15.7 °C 1015.4 hPa SW 8.0 km/h 12.9 km/h 90% 0.0 mm 0.00 W/m2
03:24 17.3 °C 15.6 °C 1015.2 hPa South 4.8 km/h 14.5 km/h 90% 0.0 mm 0.00 W/m2
03:29 17.3 °C 15.6 °C 1015.1 hPa South 8.0 km/h 14.5 km/h 90% 0.0 mm 0.00 W/m2
03:34 17.3 °C 15.6 °C 1015.0 hPa SSW 9.7 km/h 20.9 km/h 90% 0.0 mm 0.00 W/m2
03:39 17.3 °C 15.6 °C 1014.8 hPa SSW 12.9 km/h 19.3 km/h 90% 0.0 mm 0.00 W/m2
03:44 17.3 °C 15.6 °C 1014.8 hPa SW 12.9 km/h 22.5 km/h 90% 0.0 mm 0.00 W/m2
03:49 17.3 °C 15.6 °C 1014.6 hPa SW 9.7 km/h 16.1 km/h 90% 0.0 mm 0.00 W/m2
03:54 17.3 °C 15.7 °C 1014.6 hPa South 8.0 km/h 12.9 km/h 90% 0.0 mm 0.00 W/m2
03:59 17.3 °C 15.7 °C 1014.6 hPa SSW 6.4 km/h 14.5 km/h 90% 0.0 mm 0.00 W/m2
04:04 17.3 °C 15.7 °C 1014.5 hPa SSW 6.4 km/h 12.9 km/h 90% 0.0 mm 0.00 W/m2
04:09 17.3 °C 15.7 °C 1014.4 hPa South 4.8 km/h 19.3 km/h 90% 0.0 mm 0.00 W/m2
04:14 17.3 °C 15.5 °C 1014.3 hPa SSW 3.2 km/h 16.1 km/h 89% 0.0 mm 0.00 W/m2
04:19 17.4 °C 15.6 °C 1014.2 hPa SSW 9.7 km/h 17.7 km/h 89% 0.0 mm 0.00 W/m2
04:24 17.4 °C 15.6 °C 1014.2 hPa South 16.1 km/h 16.1 km/h 89% 0.0 mm 0.00 W/m2
04:29 17.4 °C 15.6 °C 1014.1 hPa SW 1.6 km/h 11.3 km/h 89% 0.0 mm 0.00 W/m2
04:34 17.4 °C 15.6 °C 1014.0 hPa SW 8.0 km/h 24.1 km/h 89% 0.0 mm 0.00 W/m2
04:39 17.4 °C 15.6 °C 1013.9 hPa South 8.0 km/h 16.1 km/h 89% 0.0 mm 0.00 W/m2
04:44 17.4 °C 15.6 °C 1013.7 hPa SSE 12.9 km/h 20.9 km/h 89% 0.0 mm 0.00 W/m2
04:49 17.5 °C 15.7 °C 1013.6 hPa South 14.5 km/h 14.5 km/h 89% 0.0 mm 0.00 W/m2
04:54 17.5 °C 15.7 °C 1013.4 hPa SW 19.3 km/h 19.3 km/h 89% 0.0 mm 0.00 W/m2
04:59 17.5 °C 15.5 °C 1013.3 hPa South 16.1 km/h 24.1 km/h 88% 0.0 mm 0.00 W/m2
05:04 17.5 °C 15.5 °C 1013.3 hPa South 12.9 km/h 16.1 km/h 88% 0.0 mm 0.00 W/m2
05:09 17.5 °C 15.5 °C 1013.1 hPa SW 4.8 km/h 17.7 km/h 88% 0.0 mm 0.00 W/m2
05:14 17.5 °C 15.5 °C 1013.0 hPa SW 20.9 km/h 22.5 km/h 88% 0.0 mm 0.00 W/m2
05:19 17.5 °C 15.5 °C 1013.1 hPa SSW 8.0 km/h 20.9 km/h 88% 0.0 mm 0.00 W/m2
05:24 17.6 °C 15.5 °C 1013.1 hPa SSW 24.1 km/h 24.1 km/h 88% 0.0 mm 0.00 W/m2
05:29 17.6 °C 15.5 °C 1013.1 hPa SW 8.0 km/h 17.7 km/h 88% 0.0 mm 0.00 W/m2
05:35 17.6 °C 15.5 °C 1013.2 hPa SSW 9.7 km/h 14.5 km/h 88% 0.0 mm 0.00 W/m2
05:39 17.6 °C 15.5 °C 1013.3 hPa SW 6.4 km/h 12.9 km/h 88% 0.0 mm 0.00 W/m2
05:44 17.6 °C 15.5 °C 1013.3 hPa SSW 8.0 km/h 11.3 km/h 88% 0.0 mm 0.00 W/m2
05:49 17.6 °C 15.5 °C 1013.2 hPa SSW 4.8 km/h 14.5 km/h 88% 0.0 mm 0.00 W/m2
05:54 17.5 °C 15.5 °C 1013.2 hPa West 12.9 km/h 20.9 km/h 88% 0.0 mm 0.00 W/m2
05:59 17.3 °C 15.3 °C 1013.2 hPa SSW 12.9 km/h 20.9 km/h 88% 0.0 mm 0.00 W/m2
06:04 17.3 °C 15.3 °C 1013.2 hPa SW 6.4 km/h 20.9 km/h 88% 0.0 mm 0.00 W/m2
06:09 17.3 °C 15.3 °C 1013.0 hPa WSW 6.4 km/h 19.3 km/h 88% 0.0 mm 0.00 W/m2
06:14 17.3 °C 15.3 °C 1013.0 hPa WSW 8.0 km/h 12.9 km/h 88% 0.0 mm 0.00 W/m2
06:19 17.3 °C 15.3 °C 1013.1 hPa SSW 9.7 km/h 22.5 km/h 88% 0.0 mm 0.00 W/m2
06:24 17.3 °C 15.1 °C 1012.9 hPa SSW 6.4 km/h 14.5 km/h 87% 0.0 mm 0.00 W/m2
06:29 17.3 °C 15.1 °C 1012.9 hPa SW 11.3 km/h 16.1 km/h 87% 0.0 mm 0.00 W/m2
06:34 17.3 °C 15.1 °C 1012.9 hPa SSW 11.3 km/h 22.5 km/h 87% 0.0 mm 5.00 W/m2
06:39 17.3 °C 15.1 °C 1013.0 hPa SW 9.7 km/h 14.5 km/h 87% 0.0 mm 0.00 W/m2
06:44 17.4 °C 15.2 °C 1013.0 hPa SSW 6.4 km/h 14.5 km/h 87% 0.0 mm 0.00 W/m2
06:49 17.4 °C 15.2 °C 1012.9 hPa SW 19.3 km/h 19.3 km/h 87% 0.0 mm 7.00 W/m2
06:54 17.3 °C 15.1 °C 1012.9 hPa SSW 6.4 km/h 17.7 km/h 87% 0.0 mm 9.00 W/m2
06:59 17.2 °C 15.0 °C 1012.9 hPa SSW 4.8 km/h 17.7 km/h 87% 0.0 mm 9.00 W/m2
07:04 17.1 °C 15.1 °C 1012.9 hPa SSW 16.1 km/h 19.3 km/h 88% 0.0 mm 12.00 W/m2
07:09 17.0 °C 15.0 °C 1012.8 hPa SSW 4.8 km/h 14.5 km/h 88% 0.0 mm 11.00 W/m2
07:14 16.9 °C 14.9 °C 1012.7 hPa SW 11.3 km/h 20.9 km/h 88% 0.0 mm 12.00 W/m2
07:19 16.9 °C 14.9 °C 1012.8 hPa SSW 9.7 km/h 16.1 km/h 88% 0.0 mm 9.00 W/m2
07:24 16.9 °C 14.8 °C 1012.8 hPa SSW 9.7 km/h 14.5 km/h 87% 0.0 mm 12.00 W/m2
07:29 16.9 °C 14.8 °C 1012.8 hPa SSW 8.0 km/h 17.7 km/h 87% 0.0 mm 14.00 W/m2
07:34 16.9 °C 14.8 °C 1012.7 hPa SSW 12.9 km/h 14.5 km/h 87% 0.0 mm 19.00 W/m2
07:39 16.9 °C 14.8 °C 1012.7 hPa South 16.1 km/h 16.1 km/h 87% 0.0 mm 30.00 W/m2
07:44 16.9 °C 14.8 °C 1012.6 hPa SW 9.7 km/h 20.9 km/h 87% 0.0 mm 37.00 W/m2
07:49 16.9 °C 14.8 °C 1012.6 hPa SW 4.8 km/h 20.9 km/h 87% 0.0 mm 26.00 W/m2
07:54 16.9 °C 14.8 °C 1012.6 hPa SW 8.0 km/h 19.3 km/h 87% 0.0 mm 25.00 W/m2
07:59 16.9 °C 14.8 °C 1012.5 hPa WSW 14.5 km/h 24.1 km/h 87% 0.0 mm 28.00 W/m2
08:04 16.9 °C 14.7 °C 1012.6 hPa SSW 11.3 km/h 20.9 km/h 87% 0.0 mm 23.00 W/m2
08:09 16.9 °C 14.7 °C 1012.6 hPa SW 4.8 km/h 17.7 km/h 87% 0.0 mm 30.00 W/m2
08:14 16.9 °C 14.9 °C 1012.7 hPa SW 11.3 km/h 16.1 km/h 88% 0.0 mm 39.00 W/m2
08:19 16.8 °C 14.8 °C 1012.5 hPa South 9.7 km/h 12.9 km/h 88% 0.0 mm 39.00 W/m2
08:24 16.8 °C 14.8 °C 1012.6 hPa SSW 16.1 km/h 17.7 km/h 88% 0.0 mm 46.00 W/m2
08:29 16.7 °C 14.9 °C 1012.6 hPa SSW 19.3 km/h 19.3 km/h 89% 0.0 mm 49.00 W/m2
08:34 16.7 °C 15.0 °C 1012.5 hPa WSW 12.9 km/h 16.1 km/h 90% 0.0 mm 49.00 W/m2
08:39 16.6 °C 15.0 °C 1012.5 hPa WSW 8.0 km/h 16.1 km/h 90% 0.0 mm 56.00 W/m2
08:44 16.6 °C 15.3 °C 1012.7 hPa SW 12.9 km/h 20.9 km/h 92% 0.0 mm 47.00 W/m2
08:49 16.6 °C 15.1 °C 1012.8 hPa SW 12.9 km/h 16.1 km/h 91% 0.0 mm 53.00 W/m2
08:54 16.6 °C 15.1 °C 1012.7 hPa SW 8.0 km/h 19.3 km/h 91% 0.0 mm 74.00 W/m2
08:59 16.6 °C 15.1 °C 1012.7 hPa WSW 12.9 km/h 20.9 km/h 91% 0.0 mm 70.00 W/m2
09:04 16.6 °C 15.2 °C 1012.7 hPa SW 8.0 km/h 16.1 km/h 92% 0.0 mm 63.00 W/m2
09:09 16.6 °C 15.2 °C 1012.8 hPa SW 19.3 km/h 24.1 km/h 92% 0.0 mm 69.00 W/m2
09:14 16.6 °C 15.2 °C 1012.8 hPa WSW 14.5 km/h 16.1 km/h 92% 0.0 mm 40.00 W/m2
09:19 16.5 °C 15.2 °C 1012.9 hPa WSW 9.7 km/h 19.3 km/h 92% 0.0 mm 39.00 W/m2
09:24 16.5 °C 15.4 °C 1013.0 hPa SW 8.0 km/h 16.1 km/h 93% 0.0 mm 56.00 W/m2
09:29 16.5 °C 15.4 °C 1013.1 hPa WSW 4.8 km/h 11.3 km/h 93% 0.0 mm 35.00 W/m2
09:34 16.5 °C 15.4 °C 1013.0 hPa West 8.0 km/h 12.9 km/h 93% 0.0 mm 56.00 W/m2
09:39 16.5 °C 15.4 °C 1013.0 hPa SSW 11.3 km/h 16.1 km/h 93% 0.0 mm 49.00 W/m2
09:44 16.6 °C 15.4 °C 1013.1 hPa WSW 9.7 km/h 16.1 km/h 93% 0.0 mm 67.00 W/m2
09:49 16.7 °C 15.7 °C 1013.1 hPa West 8.0 km/h 17.7 km/h 94% 0.0 mm 102.00 W/m2
09:54 16.8 °C 15.9 °C 1013.1 hPa WSW 16.1 km/h 22.5 km/h 94% 0.0 mm 165.00 W/m2
09:59 17.0 °C 16.0 °C 1013.1 hPa WSW 20.9 km/h 20.9 km/h 94% 0.0 mm 218.00 W/m2
10:04 17.2 °C 16.2 °C 1013.1 hPa SSW 14.5 km/h 22.5 km/h 94% 0.0 mm 213.00 W/m2
10:09 17.3 °C 16.3 °C 1013.2 hPa WSW 19.3 km/h 29.0 km/h 94% 0.0 mm 165.00 W/m2
10:14 17.3 °C 16.3 °C 1013.2 hPa WSW 11.3 km/h 14.5 km/h 94% 0.0 mm 153.00 W/m2
10:19 17.3 °C 16.4 °C 1013.2 hPa WSW 11.3 km/h 14.5 km/h 94% 0.0 mm 114.00 W/m2
10:24 17.4 °C 16.2 °C 1013.2 hPa West 9.7 km/h 17.7 km/h 93% 0.0 mm 118.00 W/m2
10:29 17.4 °C 16.3 °C 1013.2 hPa WSW 12.9 km/h 20.9 km/h 93% 0.0 mm 104.00 W/m2
10:34 17.6 °C 16.4 °C 1013.2 hPa WSW 8.0 km/h 11.3 km/h 93% 0.0 mm 130.00 W/m2
10:39 17.7 °C 16.5 °C 1013.2 hPa SW 12.9 km/h 24.1 km/h 93% 0.0 mm 149.00 W/m2
10:44 17.7 °C 16.4 °C 1013.4 hPa WSW 12.9 km/h 14.5 km/h 92% 0.0 mm 174.00 W/m2
10:49 17.9 °C 16.4 °C 1013.4 hPa WSW 17.7 km/h 24.1 km/h 91% 0.0 mm 209.00 W/m2
10:54 18.0 °C 16.5 °C 1013.3 hPa West 19.3 km/h 27.4 km/h 91% 0.0 mm 246.00 W/m2
10:59 18.2 °C 16.5 °C 1013.4 hPa WSW 8.0 km/h 17.7 km/h 90% 0.0 mm 276.00 W/m2
11:04 18.3 °C 16.4 °C 1013.3 hPa West 12.9 km/h 25.7 km/h 89% 0.0 mm 304.00 W/m2
11:09 18.4 °C 16.6 °C 1013.4 hPa WSW 12.9 km/h 20.9 km/h 89% 0.0 mm 309.00 W/m2
11:14 18.7 °C 16.8 °C 1013.3 hPa WSW 9.7 km/h 22.5 km/h 89% 0.0 mm 243.00 W/m2
11:19 18.7 °C 16.7 °C 1013.4 hPa WSW 11.3 km/h 16.1 km/h 88% 0.0 mm 174.00 W/m2
11:24 18.7 °C 16.5 °C 1013.4 hPa West 12.9 km/h 20.9 km/h 87% 0.0 mm 176.00 W/m2
11:29 18.7 °C 16.5 °C 1013.3 hPa WSW 14.5 km/h 22.5 km/h 87% 0.0 mm 313.00 W/m2
11:34 18.9 °C 16.9 °C 1013.3 hPa WSW 14.5 km/h 20.9 km/h 88% 0.0 mm 330.00 W/m2
11:39 19.2 °C 16.9 °C 1013.4 hPa WSW 11.3 km/h 11.3 km/h 87% 0.0 mm 163.00 W/m2
11:44 19.2 °C 17.0 °C 1013.5 hPa West 14.5 km/h 20.9 km/h 87% 0.0 mm 276.00 W/m2
11:49 19.3 °C 16.9 °C 1013.6 hPa WNW 16.1 km/h 20.9 km/h 86% 0.0 mm 283.00 W/m2
11:54 19.3 °C 16.7 °C 1013.6 hPa West 6.4 km/h 25.7 km/h 85% 0.0 mm 267.00 W/m2
11:59 19.3 °C 16.7 °C 1013.5 hPa West 17.7 km/h 20.9 km/h 85% 0.0 mm 371.00 W/m2
12:04 19.5 °C 16.9 °C 1013.7 hPa WNW 8.0 km/h 17.7 km/h 85% 0.0 mm 323.00 W/m2
12:09 19.6 °C 16.8 °C 1013.8 hPa WNW 14.5 km/h 24.1 km/h 84% 0.0 mm 272.00 W/m2
12:14 19.7 °C 16.7 °C 1013.8 hPa WSW 16.1 km/h 17.7 km/h 83% 0.0 mm 269.00 W/m2
12:19 19.6 °C 16.5 °C 1013.7 hPa West 11.3 km/h 30.6 km/h 82% 0.0 mm 316.00 W/m2
12:24 19.7 °C 16.7 °C 1013.7 hPa West 14.5 km/h 22.5 km/h 83% 0.0 mm 313.00 W/m2
12:29 19.8 °C 17.0 °C 1013.7 hPa WSW 14.5 km/h 17.7 km/h 84% 0.0 mm 345.00 W/m2
12:34 19.9 °C 16.7 °C 1013.8 hPa WNW 14.5 km/h 24.1 km/h 82% 0.0 mm 343.00 W/m2
12:39 19.9 °C 16.8 °C 1013.8 hPa West 12.9 km/h 22.5 km/h 82% 0.0 mm 257.00 W/m2
12:44 19.9 °C 16.8 °C 1013.8 hPa WSW 29.0 km/h 29.0 km/h 82% 0.0 mm 325.00 W/m2
12:49 20.1 °C 16.9 °C 1013.9 hPa West 14.5 km/h 24.1 km/h 82% 0.0 mm 346.00 W/m2
12:54 20.2 °C 17.0 °C 1013.9 hPa West 20.9 km/h 20.9 km/h 82% 0.0 mm 343.00 W/m2
12:59 20.2 °C 16.6 °C 1013.9 hPa WSW 16.1 km/h 20.9 km/h 80% 0.0 mm 257.00 W/m2
13:04 20.0 °C 16.4 °C 1013.9 hPa West 11.3 km/h 17.7 km/h 80% 0.0 mm 142.00 W/m2
13:09 19.8 °C 16.5 °C 1014.0 hPa West 8.0 km/h 14.5 km/h 81% 0.0 mm 100.00 W/m2
13:14 19.6 °C 16.3 °C 1014.1 hPa West 12.9 km/h 24.1 km/h 81% 0.0 mm 97.00 W/m2
13:19 19.4 °C 16.1 °C 1014.1 hPa WSW 6.4 km/h 19.3 km/h 81% 0.0 mm 137.00 W/m2
13:24 19.5 °C 16.1 °C 1014.2 hPa West 16.1 km/h 24.1 km/h 81% 0.0 mm 221.00 W/m2
13:29 19.6 °C 16.3 °C 1014.1 hPa WNW 14.5 km/h 16.1 km/h 81% 0.0 mm 128.00 W/m2
13:34 19.6 °C 16.5 °C 1014.1 hPa West 16.1 km/h 20.9 km/h 82% 0.0 mm 102.00 W/m2
13:39 19.6 °C 16.4 °C 1014.2 hPa WSW 16.1 km/h 20.9 km/h 82% 0.0 mm 114.00 W/m2
13:44 19.6 °C 16.4 °C 1014.3 hPa West 9.7 km/h 16.1 km/h 82% 0.0 mm 113.00 W/m2
13:49 19.6 °C 16.4 °C 1014.4 hPa West 8.0 km/h 16.1 km/h 82% 0.0 mm 114.00 W/m2
13:54 19.6 °C 16.5 °C 1014.4 hPa WNW 8.0 km/h 17.7 km/h 82% 0.0 mm 105.00 W/m2
13:59 19.6 °C 16.5 °C 1014.4 hPa West 6.4 km/h 11.3 km/h 82% 0.0 mm 97.00 W/m2
14:04 19.6 °C 16.5 °C 1014.4 hPa West 12.9 km/h 12.9 km/h 82% 0.0 mm 79.00 W/m2
14:09 19.6 °C 16.4 °C 1014.5 hPa West 11.3 km/h 11.3 km/h 82% 0.0 mm 72.00 W/m2
14:14 19.6 °C 16.4 °C 1014.5 hPa WSW 8.0 km/h 12.9 km/h 82% 0.0 mm 72.00 W/m2
14:19 19.6 °C 16.4 °C 1014.5 hPa WSW 4.8 km/h 9.7 km/h 82% 0.0 mm 83.00 W/m2
14:24 19.6 °C 16.4 °C 1014.5 hPa West 9.7 km/h 12.9 km/h 82% 0.0 mm 72.00 W/m2
14:29 19.6 °C 16.5 °C 1014.7 hPa West 6.4 km/h 11.3 km/h 82% 0.0 mm 74.00 W/m2
14:34 19.7 °C 16.5 °C 1014.8 hPa West 9.7 km/h 12.9 km/h 82% 0.0 mm 102.00 W/m2
14:39 19.7 °C 16.5 °C 1014.8 hPa WNW 6.4 km/h 11.3 km/h 82% 0.0 mm 116.00 W/m2
14:44 19.8 °C 16.6 °C 1014.8 hPa WNW 6.4 km/h 11.3 km/h 82% 0.0 mm 105.00 W/m2
14:49 19.8 °C 16.4 °C 1014.8 hPa West 6.4 km/h 11.3 km/h 81% 0.0 mm 123.00 W/m2
14:54 19.8 °C 16.5 °C 1014.9 hPa West 3.2 km/h 11.3 km/h 81% 0.0 mm 116.00 W/m2
14:59 19.8 °C 16.5 °C 1014.8 hPa Calm   8.0 km/h 81% 0.0 mm 107.00 W/m2
15:04 19.9 °C 16.6 °C 1014.9 hPa West 6.4 km/h 11.3 km/h 81% 0.0 mm 102.00 W/m2
15:09 19.9 °C 16.6 °C 1014.9 hPa West 8.0 km/h 16.1 km/h 81% 0.0 mm 90.00 W/m2
15:14 19.9 °C 16.5 °C 1014.9 hPa West 4.8 km/h 9.7 km/h 81% 0.0 mm 86.00 W/m2
15:19 19.9 °C 16.5 °C 1014.9 hPa Calm   11.3 km/h 81% 0.0 mm 79.00 W/m2
15:24 19.9 °C 16.8 °C 1014.9 hPa West 12.9 km/h 12.9 km/h 82% 0.0 mm 77.00 W/m2
15:29 19.9 °C 16.6 °C 1015.0 hPa West 8.0 km/h 12.9 km/h 81% 0.0 mm 84.00 W/m2
15:34 19.9 °C 16.6 °C 1015.0 hPa WNW 8.0 km/h 11.3 km/h 81% 0.0 mm 65.00 W/m2
15:39 19.9 °C 16.6 °C 1015.0 hPa WSW 1.6 km/h 8.0 km/h 81% 0.0 mm 60.00 W/m2
15:44 20.0 °C 16.6 °C 1015.1 hPa West 4.8 km/h 9.7 km/h 81% 0.0 mm 62.00 W/m2
15:49 20.0 °C 16.6 °C 1015.0 hPa West 8.0 km/h 14.5 km/h 81% 0.0 mm 40.00 W/m2
15:54 19.9 °C 16.6 °C 1015.1 hPa West 8.0 km/h 8.0 km/h 81% 0.0 mm 40.00 W/m2
15:59 19.9 °C 16.6 °C 1015.1 hPa WNW 14.5 km/h 14.5 km/h 81% 0.0 mm 32.00 W/m2
16:04 19.9 °C 16.5 °C 1015.2 hPa Calm   9.7 km/h 81% 0.0 mm 35.00 W/m2
16:09 19.9 °C 16.5 °C 1015.2 hPa Calm   11.3 km/h 81% 0.0 mm 39.00 W/m2
16:14 19.9 °C 16.7 °C 1015.3 hPa West 4.8 km/h 11.3 km/h 82% 0.0 mm 40.00 W/m2
16:19 19.9 °C 16.7 °C 1015.3 hPa West 6.4 km/h 9.7 km/h 82% 0.0 mm 51.00 W/m2
Compliments of Weather Underground - 3.5 mb